User: anonymous   Login
Location: PFO Observatory
(45.2937°N, 66.0991°W)
Time: 01:30:59
(UTC-03:00)
Language:

Cosmos 1151 Rocket - Orbit

View from above orbital plane
View from above orbital plane
View from above satellite
View from above satellite

Ground track
Ground track

The orbit data is extracted from the following two-line orbital elements,

1 11672U 80005B   14294.70797125  .00001150  00000-0  12473-3 0  1605
2 11672 082.5144 274.1412 0015301 295.8210 116.2355 14.87283190879269
Epoch (UTC): 21 October 2014 16:59:28
Eccentricity: 0.0015301
inclination: 82.5144°
perigee height: 596 km
apogee height: 617 km
right ascension of ascending node: 274.1412°
argument of perigee: 295.8210°
revolutions per day: 14.87283190
mean anomaly at epoch: 116.2355°
orbit number at epoch: 87926

The dashed part of the orbit path shows where the satellite is in the earth's shadow,  

DLR